Time,TemperatureF,DewpointF,PressureIn,WindDirection,WindDirectionDegrees,WindSpeedMPH,WindSpeedGustMPH,Humidity,HourlyPrecipIn,Conditions,Clouds,dailyrainin,SoftwareType,DateUTC
2013-05-03 00:02:00,31.1,17.7,29.23,NNE,22,6.3,6.3,57,0.00,,---,0.00,VWS V14.01,2013-05-03 05:02:00,
2013-05-03 00:05:00,31.3,17.8,29.23,NNE,22,3.6,6.5,57,0.00,,---,0.00,VWS V14.01,2013-05-03 05:05:00,
2013-05-03 00:06:00,31.3,17.8,29.23,NNE,22,4.7,4.7,57,0.00,,---,0.00,VWS V14.01,2013-05-03 05:06:00,
2013-05-03 00:07:00,31.1,18.1,29.23,NE,45,4.9,5.6,58,0.00,,---,0.00,VWS V14.01,2013-05-03 05:07:00,
2013-05-03 00:10:00,31.1,18.1,29.23,NE,45,3.1,6.3,58,0.00,,---,0.00,VWS V14.01,2013-05-03 05:10:00,
2013-05-03 00:12:00,30.9,17.9,29.23,ENE,68,5.4,5.8,58,0.00,,---,0.00,VWS V14.01,2013-05-03 05:12:00,
2013-05-03 00:15:00,30.9,17.9,29.23,ENE,68,4.0,5.6,58,0.00,,---,0.00,VWS V14.01,2013-05-03 05:15:00,
2013-05-03 00:17:00,30.9,18.3,29.23,NNE,22,4.7,6.3,59,0.00,,---,0.00,VWS V14.01,2013-05-03 05:17:00,
2013-05-03 00:20:00,30.9,18.3,29.23,NNE,22,4.3,6.5,59,0.00,,---,0.00,VWS V14.01,2013-05-03 05:20:00,
2013-05-03 00:22:00,30.7,18.1,29.23,NNE,22,3.1,5.6,59,0.00,,---,0.00,VWS V14.01,2013-05-03 05:22:00,
2013-05-03 00:25:00,30.7,18.1,29.23,NNE,22,4.3,6.3,59,0.00,,---,0.00,VWS V14.01,2013-05-03 05:25:00,
2013-05-03 00:27:00,30.6,17.6,29.23,NNE,22,3.4,4.9,58,0.00,,---,0.00,VWS V14.01,2013-05-03 05:27:00,
2013-05-03 00:30:00,30.6,18.0,29.23,NNE,22,4.9,5.6,59,0.00,,---,0.00,VWS V14.01,2013-05-03 05:30:00,
2013-05-03 00:32:00,30.2,17.6,29.23,NNE,22,2.5,4.9,59,0.00,,---,0.00,VWS V14.01,2013-05-03 05:32:00,
2013-05-03 00:37:00,30.2,17.6,29.20,NE,45,3.4,4.5,59,0.00,,---,0.00,VWS V14.01,2013-05-03 05:37:00,
2013-05-03 00:40:00,30.2,17.6,29.20,NNE,22,3.4,4.9,59,0.00,,---,0.00,VWS V14.01,2013-05-03 05:40:00,
2013-05-03 00:42:00,30.2,18.0,29.20,NE,45,8.1,8.1,60,0.00,,---,0.00,VWS V14.01,2013-05-03 05:42:00,
2013-05-03 00:45:00,30.2,17.6,29.20,NNE,22,5.8,5.8,59,0.00,,---,0.00,VWS V14.01,2013-05-03 05:45:00,
2013-05-03 00:47:00,30.2,18.0,29.20,NNE,22,6.3,6.3,60,0.00,,---,0.00,VWS V14.01,2013-05-03 05:47:00,
2013-05-03 00:50:00,30.2,18.0,29.20,NE,45,3.6,8.1,60,0.00,,---,0.00,VWS V14.01,2013-05-03 05:50:00,
2013-05-03 00:52:00,30.2,18.0,29.20,ENE,68,3.4,5.8,60,0.00,,---,0.00,VWS V14.01,2013-05-03 05:52:00,
2013-05-03 00:55:00,30.2,18.0,29.20,NNE,22,3.4,6.3,60,0.00,,---,0.00,VWS V14.01,2013-05-03 05:55:00,
2013-05-03 00:57:00,30.2,18.4,29.20,NE,45,4.0,4.9,61,0.00,,---,0.00,VWS V14.01,2013-05-03 05:57:00,
2013-05-03 01:00:00,30.2,18.0,29.20,NE,45,4.3,5.8,60,0.00,,---,0.00,VWS V14.01,2013-05-03 06:00:00,
2013-05-03 01:02:00,30.0,18.2,29.20,NE,45,4.0,6.3,61,0.00,,---,0.00,VWS V14.01,2013-05-03 06:02:00,
2013-05-03 01:07:00,30.0,18.2,29.20,ENE,68,4.5,4.5,61,0.00,,---,0.00,VWS V14.01,2013-05-03 06:07:00,
2013-05-03 01:10:00,30.0,18.2,29.20,NNE,22,4.0,6.3,61,0.00,,---,0.00,VWS V14.01,2013-05-03 06:10:00,
2013-05-03 01:12:00,29.8,18.4,29.20,NE,45,4.3,6.5,62,0.00,,---,0.00,VWS V14.01,2013-05-03 06:12:00,
2013-05-03 01:15:00,30.0,18.2,29.20,NE,45,3.4,6.0,61,0.00,,---,0.00,VWS V14.01,2013-05-03 06:15:00,
2013-05-03 01:20:00,29.8,18.4,29.20,ENE,68,5.6,6.5,62,0.00,,---,0.00,VWS V14.01,2013-05-03 06:20:00,
2013-05-03 01:21:00,29.8,18.8,29.20,NNE,22,3.8,4.3,63,0.00,,---,0.00,VWS V14.01,2013-05-03 06:21:00,
2013-05-03 01:25:00,29.8,18.8,29.20,NE,45,4.3,6.9,63,0.00,,---,0.00,VWS V14.01,2013-05-03 06:25:00,
2013-05-03 01:26:00,29.7,18.6,29.20,NE,45,4.9,6.0,63,0.00,,---,0.00,VWS V14.01,2013-05-03 06:26:00,
2013-05-03 01:30:00,29.8,18.8,29.20,NE,45,4.9,6.3,63,0.00,,---,0.00,VWS V14.01,2013-05-03 06:30:00,
2013-05-03 01:31:00,29.7,18.6,29.20,ENE,68,5.4,6.5,63,0.00,,---,0.00,VWS V14.01,2013-05-03 06:31:00,
2013-05-03 01:36:00,29.7,18.6,29.17,NNE,22,4.9,6.0,63,0.00,,---,0.00,VWS V14.01,2013-05-03 06:36:00,
2013-05-03 01:40:00,29.7,19.0,29.17,NE,45,4.3,6.7,64,0.00,,---,0.00,VWS V14.01,2013-05-03 06:40:00,
2013-05-03 01:41:00,29.5,18.1,29.17,NNE,22,5.4,6.0,62,0.00,,---,0.00,VWS V14.01,2013-05-03 06:41:00,
2013-05-03 01:46:00,29.5,18.1,29.17,NE,45,3.6,5.6,62,0.00,,---,0.00,VWS V14.01,2013-05-03 06:46:00,
2013-05-03 01:50:00,29.5,18.1,29.17,NNE,22,3.6,6.0,62,0.00,,---,0.00,VWS V14.01,2013-05-03 06:50:00,
2013-05-03 01:51:00,29.3,17.9,29.20,NNE,22,3.4,5.6,62,0.00,,---,0.00,VWS V14.01,2013-05-03 06:51:00,
2013-05-03 01:55:00,29.3,17.9,29.20,NE,45,5.4,5.6,62,0.00,,---,0.00,VWS V14.01,2013-05-03 06:55:00,
2013-05-03 01:56:00,29.1,18.1,29.20,NE,45,4.3,5.4,63,0.00,,---,0.00,VWS V14.01,2013-05-03 06:56:00,
2013-05-03 02:00:00,29.1,18.1,29.20,NNE,22,3.8,5.6,63,0.00,,---,0.00,VWS V14.01,2013-05-03 07:00:00,
2013-05-03 02:01:00,28.9,17.6,29.20,NNE,22,3.6,4.0,62,0.00,,---,0.00,VWS V14.01,2013-05-03 07:01:00,
2013-05-03 02:05:00,28.9,17.9,29.20,NNE,22,4.0,5.4,63,0.00,,---,0.00,VWS V14.01,2013-05-03 07:05:00,
2013-05-03 02:06:00,28.8,17.4,29.20,NE,45,3.8,5.8,62,0.00,,---,0.00,VWS V14.01,2013-05-03 07:06:00,
2013-05-03 02:10:00,28.8,17.4,29.20,NNE,22,5.8,5.8,62,0.00,,---,0.00,VWS V14.01,2013-05-03 07:10:00,
2013-05-03 02:11:00,28.6,17.6,29.20,NNE,22,4.3,4.9,63,0.00,,---,0.00,VWS V14.01,2013-05-03 07:11:00,
2013-05-03 02:15:00,28.6,17.6,29.20,NE,45,3.4,5.8,63,0.00,,---,0.00,VWS V14.01,2013-05-03 07:15:00,
2013-05-03 02:16:00,28.6,18.0,29.20,NNE,22,3.8,3.8,64,0.00,,---,0.00,VWS V14.01,2013-05-03 07:16:00,
2013-05-03 02:20:00,28.6,17.6,29.20,NE,45,3.4,4.9,63,0.00,,---,0.00,VWS V14.01,2013-05-03 07:20:00,
2013-05-03 02:21:00,28.6,18.0,29.20,NNE,22,3.6,4.9,64,0.00,,---,0.00,VWS V14.01,2013-05-03 07:21:00,
2013-05-03 02:25:00,28.6,18.0,29.20,NNE,22,3.6,4.7,64,0.00,,---,0.00,VWS V14.01,2013-05-03 07:25:00,
2013-05-03 02:26:00,28.4,17.8,29.20,NNE,22,3.6,4.0,64,0.00,,---,0.00,VWS V14.01,2013-05-03 07:26:00,
2013-05-03 02:30:00,28.4,17.8,29.20,NNE,22,2.9,4.9,64,0.00,,---,0.00,VWS V14.01,2013-05-03 07:30:00,
2013-05-03 02:31:00,28.2,17.6,29.20,North,0,3.1,3.8,64,0.00,,---,0.00,VWS V14.01,2013-05-03 07:31:00,
2013-05-03 02:35:00,28.2,17.6,29.20,North,0,3.8,4.0,64,0.00,,---,0.00,VWS V14.01,2013-05-03 07:35:00,
2013-05-03 02:36:00,28.0,17.5,29.20,NE,45,2.5,4.0,64,0.00,,---,0.00,VWS V14.01,2013-05-03 07:36:00,
2013-05-03 02:40:00,28.0,17.5,29.20,NNE,22,2.9,3.8,64,0.00,,---,0.00,VWS V14.01,2013-05-03 07:40:00,
2013-05-03 02:41:00,27.9,17.6,29.20,NE,45,2.9,5.6,65,0.00,,---,0.00,VWS V14.01,2013-05-03 07:41:00,
2013-05-03 02:45:00,27.9,17.3,29.20,NE,45,3.8,4.0,64,0.00,,---,0.00,VWS V14.01,2013-05-03 07:45:00,
2013-05-03 02:46:00,27.9,17.6,29.20,NE,45,2.9,3.6,65,0.00,,---,0.00,VWS V14.01,2013-05-03 07:46:00,
2013-05-03 02:50:00,27.9,17.6,29.20,NE,45,3.6,5.6,65,0.00,,---,0.00,VWS V14.01,2013-05-03 07:50:00,
2013-05-03 02:51:00,27.7,17.5,29.20,NNW,338,2.9,3.6,65,0.00,,---,0.00,VWS V14.01,2013-05-03 07:51:00,
2013-05-03 02:55:00,27.9,17.6,29.20,NE,45,3.4,3.8,65,0.00,,---,0.00,VWS V14.01,2013-05-03 07:55:00,
2013-05-03 02:56:00,27.7,17.5,29.20,NNW,338,4.7,4.7,65,0.00,,---,0.00,VWS V14.01,2013-05-03 07:56:00,
2013-05-03 03:00:00,27.7,17.5,29.20,North,0,2.7,3.6,65,0.00,,---,0.00,VWS V14.01,2013-05-03 08:00:00,
2013-05-03 03:01:00,27.3,17.1,29.20,East,90,3.1,3.4,65,0.00,,---,0.00,VWS V14.01,2013-05-03 08:01:00,
2013-05-03 03:05:00,27.5,17.3,29.20,NNE,22,2.5,4.7,65,0.00,,---,0.00,VWS V14.01,2013-05-03 08:05:00,
2013-05-03 03:06:00,26.8,16.6,29.17,NNE,22,3.4,4.3,65,0.00,,---,0.00,VWS V14.01,2013-05-03 08:06:00,
2013-05-03 03:10:00,27.0,16.8,29.17,NNE,22,2.9,4.3,65,0.00,,---,0.00,VWS V14.01,2013-05-03 08:10:00,
2013-05-03 03:11:00,26.6,16.4,29.17,NNE,22,3.4,4.0,65,0.00,,---,0.00,VWS V14.01,2013-05-03 08:11:00,
2013-05-03 03:15:00,26.6,16.4,29.17,North,0,2.7,4.3,65,0.00,,---,0.00,VWS V14.01,2013-05-03 08:15:00,
2013-05-03 03:16:00,26.6,16.8,29.17,NNE,22,2.7,3.8,66,0.00,,---,0.00,VWS V14.01,2013-05-03 08:16:00,
2013-05-03 03:20:00,26.6,16.4,29.17,NNE,22,3.4,4.3,65,0.00,,---,0.00,VWS V14.01,2013-05-03 08:20:00,
2013-05-03 03:21:00,26.6,16.8,29.20,NNE,22,3.8,3.8,66,0.00,,---,0.00,VWS V14.01,2013-05-03 08:21:00,
2013-05-03 03:25:00,26.6,16.8,29.20,North,0,2.7,3.8,66,0.00,,---,0.00,VWS V14.01,2013-05-03 08:25:00,
2013-05-03 03:26:00,26.8,17.3,29.20,NNW,338,3.8,4.0,67,0.00,,---,0.00,VWS V14.01,2013-05-03 08:26:00,
2013-05-03 03:30:00,26.6,17.1,29.20,North,0,3.1,3.8,67,0.00,,---,0.00,VWS V14.01,2013-05-03 08:30:00,
2013-05-03 03:31:00,26.8,17.3,29.20,North,0,4.3,4.3,67,0.00,,---,0.00,VWS V14.01,2013-05-03 08:31:00,
2013-05-03 03:35:00,26.8,17.3,29.20,North,0,3.1,4.0,67,0.00,,---,0.00,VWS V14.01,2013-05-03 08:35:00,
2013-05-03 03:36:00,26.8,17.3,29.17,NNE,22,1.3,4.7,67,0.00,,---,0.00,VWS V14.01,2013-05-03 08:36:00,
2013-05-03 03:40:00,26.8,17.3,29.17,North,0,2.9,4.3,67,0.00,,---,0.00,VWS V14.01,2013-05-03 08:40:00,
2013-05-03 03:41:00,26.8,17.3,29.17,NNW,338,2.5,4.3,67,0.00,,---,0.00,VWS V14.01,2013-05-03 08:41:00,
2013-05-03 03:45:00,26.8,17.3,29.17,North,0,3.8,5.4,67,0.00,,---,0.00,VWS V14.01,2013-05-03 08:45:00,
2013-05-03 03:46:00,26.8,17.6,29.17,North,0,3.1,5.8,68,0.00,,---,0.00,VWS V14.01,2013-05-03 08:46:00,
2013-05-03 03:50:00,26.8,17.3,29.17,NNE,22,4.3,5.4,67,0.00,,---,0.00,VWS V14.01,2013-05-03 08:50:00,
2013-05-03 03:51:00,26.8,17.6,29.17,NNW,338,3.6,5.4,68,0.00,,---,0.00,VWS V14.01,2013-05-03 08:51:00,
2013-05-03 03:55:00,26.8,17.6,29.17,NNE,22,4.0,5.8,68,0.00,,---,0.00,VWS V14.01,2013-05-03 08:55:00,
2013-05-03 03:56:00,27.0,18.2,29.17,NNE,22,3.6,6.0,69,0.00,,---,0.00,VWS V14.01,2013-05-03 08:56:00,
2013-05-03 04:00:00,27.0,18.2,29.17,NNW,338,3.6,5.4,69,0.00,,---,0.00,VWS V14.01,2013-05-03 09:00:00,
2013-05-03 04:01:00,27.0,18.5,29.17,NNE,22,4.3,6.0,70,0.00,,---,0.00,VWS V14.01,2013-05-03 09:01:00,
2013-05-03 04:06:00,27.0,18.5,29.17,NNE,22,3.6,4.3,70,0.00,,---,0.00,VWS V14.01,2013-05-03 09:06:00,
2013-05-03 04:10:00,27.0,18.5,29.17,NNE,22,4.3,6.0,70,0.00,,---,0.00,VWS V14.01,2013-05-03 09:10:00,
2013-05-03 04:11:00,26.8,18.3,29.17,North,0,4.3,4.3,70,0.00,,---,0.00,VWS V14.01,2013-05-03 09:11:00,
2013-05-03 04:15:00,27.0,18.5,29.17,NNW,338,2.5,4.7,70,0.00,,---,0.00,VWS V14.01,2013-05-03 09:15:00,
2013-05-03 04:16:00,27.0,18.8,29.17,NNE,22,4.0,6.3,71,0.00,,---,0.00,VWS V14.01,2013-05-03 09:16:00,
2013-05-03 04:20:00,26.8,18.3,29.17,NNW,338,4.3,4.9,70,0.00,,---,0.00,VWS V14.01,2013-05-03 09:20:00,
2013-05-03 04:21:00,27.0,18.8,29.14,North,0,5.6,5.8,71,0.00,,---,0.00,VWS V14.01,2013-05-03 09:21:00,
2013-05-03 04:25:00,27.0,18.8,29.15,North,0,5.8,6.5,71,0.00,,---,0.00,VWS V14.01,2013-05-03 09:25:00,
2013-05-03 04:26:00,27.0,18.8,29.14,NNW,338,3.4,5.4,71,0.00,,---,0.00,VWS V14.01,2013-05-03 09:26:00,
2013-05-03 04:30:00,27.0,18.8,29.15,North,0,5.4,5.8,71,0.00,,---,0.00,VWS V14.01,2013-05-03 09:30:00,
2013-05-03 04:31:00,27.0,18.8,29.14,North,0,3.8,6.0,71,0.00,,---,0.00,VWS V14.01,2013-05-03 09:31:00,
2013-05-03 04:35:00,27.0,18.8,29.15,North,0,3.8,7.2,71,0.00,,---,0.00,VWS V14.01,2013-05-03 09:35:00,
2013-05-03 04:36:00,27.0,18.8,29.17,NNW,338,6.5,6.5,71,0.00,,---,0.00,VWS V14.01,2013-05-03 09:36:00,
2013-05-03 04:40:00,27.0,18.8,29.17,NNE,22,5.8,6.5,71,0.00,,---,0.00,VWS V14.01,2013-05-03 09:40:00,
2013-05-03 04:41:00,27.3,19.5,29.17,NE,45,3.6,6.0,72,0.00,,---,0.00,VWS V14.01,2013-05-03 09:41:00,
2013-05-03 04:45:00,27.3,19.5,29.17,NNW,338,6.0,8.7,72,0.00,,---,0.00,VWS V14.01,2013-05-03 09:45:00,
2013-05-03 04:46:00,27.3,19.5,29.17,NNE,22,3.1,5.8,72,0.00,,---,0.00,VWS V14.01,2013-05-03 09:46:00,
2013-05-03 04:50:00,27.3,19.5,29.17,NNE,22,2.9,6.0,72,0.00,,---,0.00,VWS V14.01,2013-05-03 09:50:00,
2013-05-03 04:51:00,27.5,19.7,29.14,NNE,22,4.9,7.4,72,0.00,,---,0.00,VWS V14.01,2013-05-03 09:51:00,
2013-05-03 04:55:00,27.5,19.7,29.15,NNE,22,4.9,7.6,72,0.00,,---,0.00,VWS V14.01,2013-05-03 09:55:00,
2013-05-03 04:56:00,27.5,19.7,29.14,NNW,338,6.9,7.2,72,0.00,,---,0.00,VWS V14.01,2013-05-03 09:56:00,
2013-05-03 05:00:00,27.5,19.7,29.15,NNE,22,7.2,8.1,72,0.00,,---,0.00,VWS V14.01,2013-05-03 10:00:00,
2013-05-03 05:01:00,27.7,19.9,29.14,North,0,6.0,7.6,72,0.00,,---,0.00,VWS V14.01,2013-05-03 10:01:00,
2013-05-03 05:05:00,27.7,19.9,29.15,NNE,22,3.1,7.2,72,0.00,,---,0.00,VWS V14.01,2013-05-03 10:05:00,
2013-05-03 05:06:00,27.7,19.5,29.14,North,0,7.6,7.8,71,0.00,,---,0.00,VWS V14.01,2013-05-03 10:06:00,
2013-05-03 05:10:00,27.7,19.9,29.15,NNE,22,4.3,7.6,72,0.00,,---,0.00,VWS V14.01,2013-05-03 10:10:00,
2013-05-03 05:11:00,27.5,19.4,29.14,NNE,22,5.8,7.6,71,0.00,,---,0.00,VWS V14.01,2013-05-03 10:11:00,
2013-05-03 05:15:00,27.7,19.5,29.15,NNW,338,4.7,8.1,71,0.00,,---,0.00,VWS V14.01,2013-05-03 10:15:00,
2013-05-03 05:16:00,27.5,19.7,29.14,North,0,5.6,6.5,72,0.00,,---,0.00,VWS V14.01,2013-05-03 10:16:00,
2013-05-03 05:20:00,27.5,19.7,29.15,NNW,338,6.0,7.6,72,0.00,,---,0.00,VWS V14.01,2013-05-03 10:20:00,
2013-05-03 05:21:00,27.5,19.7,29.14,NNW,338,8.7,8.7,72,0.00,,---,0.00,VWS V14.01,2013-05-03 10:21:00,
2013-05-03 05:25:00,27.5,19.7,29.15,NNW,338,5.8,7.6,72,0.00,,---,0.00,VWS V14.01,2013-05-03 10:25:00,
2013-05-03 05:26:00,27.5,19.7,29.14,North,0,3.8,5.4,72,0.00,,---,0.00,VWS V14.01,2013-05-03 10:26:00,
2013-05-03 05:30:00,27.5,19.7,29.15,North,0,5.4,8.7,72,0.00,,---,0.00,VWS V14.01,2013-05-03 10:30:00,
2013-05-03 05:31:00,27.5,19.7,29.14,North,0,4.0,6.5,72,0.00,,---,0.00,VWS V14.01,2013-05-03 10:31:00,
2013-05-03 05:35:00,27.5,19.7,29.15,NNE,22,3.1,6.3,72,0.00,,---,0.00,VWS V14.01,2013-05-03 10:35:00,
2013-05-03 05:36:00,27.5,19.7,29.14,NNW,338,3.4,7.6,72,0.00,,---,0.00,VWS V14.01,2013-05-03 10:36:00,
2013-05-03 05:40:00,27.5,19.7,29.15,NNE,22,5.4,6.5,72,0.00,,---,0.00,VWS V14.01,2013-05-03 10:40:00,
2013-05-03 05:41:00,27.5,19.7,29.14,North,0,5.4,8.5,72,0.00,,---,0.00,VWS V14.01,2013-05-03 10:41:00,
2013-05-03 05:45:00,27.5,19.7,29.15,North,0,8.5,8.5,72,0.00,,---,0.00,VWS V14.01,2013-05-03 10:45:00,
2013-05-03 05:46:00,27.7,20.2,29.14,NNE,22,6.5,11.0,73,0.00,,---,0.00,VWS V14.01,2013-05-03 10:46:00,
2013-05-03 05:50:00,27.5,20.0,29.15,North,0,11.0,11.0,73,0.00,,---,0.00,VWS V14.01,2013-05-03 10:50:00,
2013-05-03 05:51:00,27.7,20.2,29.14,NNE,22,4.0,8.1,73,0.00,,---,0.00,VWS V14.01,2013-05-03 10:51:00,
2013-05-03 05:55:00,27.7,20.2,29.15,NNE,22,6.5,11.0,73,0.00,,---,0.00,VWS V14.01,2013-05-03 10:55:00,
2013-05-03 05:56:00,27.7,19.9,29.14,North,0,4.0,8.7,72,0.00,,---,0.00,VWS V14.01,2013-05-03 10:56:00,
2013-05-03 06:00:00,27.7,19.9,29.15,NNE,22,4.9,8.1,72,0.00,,---,0.00,VWS V14.01,2013-05-03 11:00:00,
2013-05-03 06:01:00,27.7,20.2,29.14,NNE,22,4.3,9.8,73,0.00,,---,0.00,VWS V14.01,2013-05-03 11:01:00,
2013-05-03 06:05:00,27.7,19.9,29.15,NE,45,4.0,12.1,72,0.00,,---,0.00,VWS V14.01,2013-05-03 11:05:00,
2013-05-03 06:06:00,27.7,20.2,29.14,North,0,4.0,5.6,73,0.00,,---,0.00,VWS V14.01,2013-05-03 11:06:00,
2013-05-03 06:10:00,27.7,20.2,29.15,NNE,22,5.4,9.8,73,0.00,,---,0.00,VWS V14.01,2013-05-03 11:10:00,
2013-05-03 06:11:00,27.7,19.9,29.14,NNE,22,4.3,5.8,72,0.00,,---,0.00,VWS V14.01,2013-05-03 11:11:00,
2013-05-03 06:15:00,27.7,19.9,29.15,NNE,22,3.1,7.4,72,0.00,,---,0.00,VWS V14.01,2013-05-03 11:15:00,
2013-05-03 06:16:00,27.7,19.9,29.14,NNE,22,6.5,6.5,72,0.00,,---,0.00,VWS V14.01,2013-05-03 11:16:00,
2013-05-03 06:20:00,27.7,19.9,29.15,NNE,22,4.3,6.5,72,0.00,,---,0.00,VWS V14.01,2013-05-03 11:20:00,
2013-05-03 06:21:00,27.9,20.0,29.14,NNW,338,3.4,6.0,72,0.00,,---,0.00,VWS V14.01,2013-05-03 11:21:00,
2013-05-03 06:25:00,27.9,20.0,29.15,NNW,338,6.0,10.3,72,0.00,,---,0.00,VWS V14.01,2013-05-03 11:25:00,
2013-05-03 06:26:00,27.9,20.0,29.14,NNE,22,5.8,6.5,72,0.00,,---,0.00,VWS V14.01,2013-05-03 11:26:00,
2013-05-03 06:30:00,27.9,20.0,29.15,NNE,22,3.1,6.0,72,0.00,,---,0.00,VWS V14.01,2013-05-03 11:30:00,
2013-05-03 06:31:00,27.9,20.0,29.14,NE,45,5.8,7.6,72,0.00,,---,0.00,VWS V14.01,2013-05-03 11:31:00,
2013-05-03 06:35:00,27.9,20.0,29.15,North,0,3.6,7.2,72,0.00,,---,0.00,VWS V14.01,2013-05-03 11:35:00,
2013-05-03 06:36:00,28.0,20.2,29.14,NNW,338,5.6,7.6,72,0.00,,---,0.00,VWS V14.01,2013-05-03 11:36:00,
2013-05-03 06:40:00,28.0,20.2,29.15,NNE,22,7.6,7.8,72,0.00,,---,0.00,VWS V14.01,2013-05-03 11:40:00,
2013-05-03 06:41:00,28.2,20.4,29.14,North,0,7.4,7.4,72,0.00,,---,0.00,VWS V14.01,2013-05-03 11:41:00,
2013-05-03 06:45:00,28.0,20.2,29.15,NNE,22,5.6,7.6,72,0.00,,---,0.00,VWS V14.01,2013-05-03 11:45:00,
2013-05-03 06:46:00,28.4,20.5,29.14,NNE,22,4.9,9.0,72,0.00,,---,0.00,VWS V14.01,2013-05-03 11:46:00,
2013-05-03 06:50:00,28.2,20.4,29.15,NNE,22,6.0,10.1,72,0.00,,---,0.00,VWS V14.01,2013-05-03 11:50:00,
2013-05-03 06:51:00,28.4,20.2,29.14,NE,45,4.3,6.0,71,0.00,,---,0.00,VWS V14.01,2013-05-03 11:51:00,
2013-05-03 06:55:00,28.4,20.2,29.15,NNE,22,6.0,9.0,71,0.00,,---,0.00,VWS V14.01,2013-05-03 11:55:00,
2013-05-03 06:56:00,28.4,20.5,29.14,NNE,22,7.6,7.6,72,0.00,,---,0.00,VWS V14.01,2013-05-03 11:56:00,
2013-05-03 07:00:00,28.4,20.5,29.15,NE,45,7.4,10.1,72,0.00,,---,0.00,VWS V14.01,2013-05-03 12:00:00,
2013-05-03 07:01:00,28.6,20.0,29.14,NNE,22,4.0,5.8,70,0.00,,---,0.00,VWS V14.01,2013-05-03 12:01:00,
2013-05-03 07:05:00,28.4,20.2,29.15,NE,45,4.9,7.6,71,0.00,,---,0.00,VWS V14.01,2013-05-03 12:05:00,
2013-05-03 07:06:00,28.6,20.0,29.14,NE,45,5.6,8.7,70,0.00,,---,0.00,VWS V14.01,2013-05-03 12:06:00,
2013-05-03 07:10:00,28.6,20.0,29.15,NE,45,5.4,7.8,70,0.00,,---,0.00,VWS V14.01,2013-05-03 12:10:00,
2013-05-03 07:11:00,28.8,20.2,29.14,NNE,22,3.8,4.3,70,0.00,,---,0.00,VWS V14.01,2013-05-03 12:11:00,
2013-05-03 07:15:00,28.8,20.2,29.15,NNE,22,4.3,8.7,70,0.00,,---,0.00,VWS V14.01,2013-05-03 12:15:00,
2013-05-03 07:16:00,28.9,20.4,29.14,North,0,3.8,7.8,70,0.00,,---,0.00,VWS V14.01,2013-05-03 12:16:00,
2013-05-03 07:20:00,28.9,20.4,29.15,NNE,22,6.0,7.6,70,0.00,,---,0.00,VWS V14.01,2013-05-03 12:20:00,
2013-05-03 07:21:00,29.1,20.6,29.14,NNE,22,7.4,7.8,70,0.00,,---,0.00,VWS V14.01,2013-05-03 12:21:00,
2013-05-03 07:25:00,29.1,20.6,29.15,NNE,22,7.8,7.8,70,0.00,,---,0.00,VWS V14.01,2013-05-03 12:25:00,
2013-05-03 07:26:00,29.5,20.9,29.14,North,0,8.1,8.1,70,0.00,,---,0.00,VWS V14.01,2013-05-03 12:26:00,
2013-05-03 07:30:00,29.5,20.9,29.15,NNE,22,5.6,8.5,70,0.00,,---,0.00,VWS V14.01,2013-05-03 12:30:00,
2013-05-03 07:31:00,29.7,21.1,29.14,NE,45,8.1,8.1,70,0.00,,---,0.00,VWS V14.01,2013-05-03 12:31:00,
2013-05-03 07:35:00,29.5,20.6,29.15,NNE,22,7.4,8.1,69,0.00,,---,0.00,VWS V14.01,2013-05-03 12:35:00,
2013-05-03 07:36:00,29.8,20.9,29.14,North,0,5.8,7.6,69,0.00,,---,0.00,VWS V14.01,2013-05-03 12:36:00,
2013-05-03 07:40:00,29.8,21.3,29.15,NNE,22,5.4,8.1,70,0.00,,---,0.00,VWS V14.01,2013-05-03 12:40:00,
2013-05-03 07:41:00,30.0,21.1,29.14,NNE,22,2.9,8.5,69,0.00,,---,0.00,VWS V14.01,2013-05-03 12:41:00,
2013-05-03 07:45:00,30.0,21.1,29.15,NE,45,7.6,8.5,69,0.00,,---,0.00,VWS V14.01,2013-05-03 12:45:00,
2013-05-03 07:46:00,30.2,21.3,29.14,NNE,22,6.3,7.8,69,0.00,,---,0.00,VWS V14.01,2013-05-03 12:46:00,
2013-05-03 07:50:00,30.2,21.3,29.15,NNE,22,6.3,10.5,69,0.00,,---,0.00,VWS V14.01,2013-05-03 12:50:00,
2013-05-03 07:51:00,30.4,21.1,29.14,NNE,22,5.8,5.8,68,0.00,,---,0.00,VWS V14.01,2013-05-03 12:51:00,
2013-05-03 07:55:00,30.2,20.9,29.15,NNE,22,5.8,7.8,68,0.00,,---,0.00,VWS V14.01,2013-05-03 12:55:00,
2013-05-03 07:56:00,30.7,21.1,29.14,NNE,22,3.8,4.7,67,0.00,,---,0.00,VWS V14.01,2013-05-03 12:56:00,
2013-05-03 08:00:00,30.6,20.9,29.15,NNE,22,3.8,5.8,67,0.00,,---,0.00,VWS V14.01,2013-05-03 13:00:00,
2013-05-03 08:01:00,30.9,21.3,29.14,NNE,22,7.6,7.6,67,0.00,,---,0.00,VWS V14.01,2013-05-03 13:01:00,
2013-05-03 08:05:00,30.7,21.1,29.15,North,0,5.8,7.4,67,0.00,,---,0.00,VWS V14.01,2013-05-03 13:05:00,
2013-05-03 08:06:00,31.1,21.4,29.14,NNE,22,6.5,8.1,67,0.00,,---,0.00,VWS V14.01,2013-05-03 13:06:00,
2013-05-03 08:10:00,30.9,21.3,29.15,NE,45,5.8,8.7,67,0.00,,---,0.00,VWS V14.01,2013-05-03 13:10:00,
2013-05-03 08:11:00,31.1,21.4,29.14,NE,45,6.9,6.9,67,0.00,,---,0.00,VWS V14.01,2013-05-03 13:11:00,
2013-05-03 08:15:00,31.1,21.4,29.15,ENE,68,4.0,11.9,67,0.00,,---,0.00,VWS V14.01,2013-05-03 13:15:00,
2013-05-03 08:16:00,31.3,21.3,29.14,NE,45,5.4,10.1,66,0.00,,---,0.00,VWS V14.01,2013-05-03 13:16:00,
2013-05-03 08:20:00,31.3,21.3,29.15,NNW,338,6.5,10.5,66,0.00,,---,0.00,VWS V14.01,2013-05-03 13:20:00,
2013-05-03 08:21:00,31.3,21.3,29.12,NNE,22,6.5,10.1,66,0.00,,---,0.00,VWS V14.01,2013-05-03 13:21:00,
2013-05-03 08:25:00,31.3,21.3,29.11,NE,45,6.5,10.1,66,0.00,,---,0.00,VWS V14.01,2013-05-03 13:25:00,
2013-05-03 08:26:00,31.3,20.9,29.12,NE,45,8.1,8.1,65,0.00,,---,0.00,VWS V14.01,2013-05-03 13:26:00,
2013-05-03 08:30:00,31.3,21.3,29.11,NNE,22,4.9,10.1,66,0.00,,---,0.00,VWS V14.01,2013-05-03 13:30:00,
2013-05-03 08:31:00,31.5,21.4,29.12,NNE,22,7.4,10.7,66,0.00,,---,0.00,VWS V14.01,2013-05-03 13:31:00,
2013-05-03 08:35:00,31.5,21.4,29.11,NE,45,10.7,12.1,66,0.00,,---,0.00,VWS V14.01,2013-05-03 13:35:00,
2013-05-03 08:36:00,31.8,21.4,29.12,North,0,4.0,10.5,65,0.00,,---,0.00,VWS V14.01,2013-05-03 13:36:00,
2013-05-03 08:40:00,31.8,21.8,29.11,NNE,22,10.5,11.0,66,0.00,,---,0.00,VWS V14.01,2013-05-03 13:40:00,
2013-05-03 08:41:00,32.9,22.8,29.12,NNE,22,5.4,9.0,66,0.00,,---,0.00,VWS V14.01,2013-05-03 13:41:00,
2013-05-03 08:45:00,32.5,22.1,29.11,ENE,68,7.6,10.5,65,0.00,,---,0.00,VWS V14.01,2013-05-03 13:45:00,
2013-05-03 08:46:00,33.8,23.3,29.12,NNE,22,5.8,10.5,65,0.00,,---,0.00,VWS V14.01,2013-05-03 13:46:00,
2013-05-03 08:50:00,33.3,23.1,29.11,NE,45,3.8,9.2,66,0.00,,---,0.00,VWS V14.01,2013-05-03 13:50:00,
2013-05-03 08:51:00,34.5,22.9,29.12,NE,45,6.0,15.2,62,0.00,,---,0.00,VWS V14.01,2013-05-03 13:51:00,
2013-05-03 08:55:00,34.3,22.7,29.11,NE,45,12.8,12.8,62,0.00,,---,0.00,VWS V14.01,2013-05-03 13:55:00,
2013-05-03 08:56:00,35.2,22.4,29.12,NNE,22,12.5,12.5,59,0.00,,---,0.00,VWS V14.01,2013-05-03 13:56:00,
2013-05-03 09:00:00,35.1,22.6,29.11,NE,45,10.5,15.2,60,0.00,,---,0.00,VWS V14.01,2013-05-03 14:00:00,
2013-05-03 09:01:00,35.4,22.1,29.12,NE,45,14.8,15.2,58,0.00,,---,0.00,VWS V14.01,2013-05-03 14:01:00,
2013-05-03 09:05:00,35.4,22.5,29.11,ENE,68,9.6,12.8,59,0.00,,---,0.00,VWS V14.01,2013-05-03 14:05:00,
2013-05-03 09:06:00,35.4,22.1,29.09,NE,45,17.5,17.7,58,0.00,,---,0.00,VWS V14.01,2013-05-03 14:06:00,
2013-05-03 09:10:00,35.4,22.5,29.09,NE,45,12.8,15.2,59,0.00,,---,0.00,VWS V14.01,2013-05-03 14:10:00,
2013-05-03 09:11:00,35.1,21.4,29.09,NNE,22,8.7,10.5,57,0.00,,---,0.00,VWS V14.01,2013-05-03 14:11:00,
2013-05-03 09:15:00,35.1,21.4,29.09,NE,45,10.3,17.7,57,0.00,,---,0.00,VWS V14.01,2013-05-03 14:15:00,
2013-05-03 09:16:00,35.1,21.8,29.09,ENE,68,11.9,14.1,58,0.00,,---,0.00,VWS V14.01,2013-05-03 14:16:00,
2013-05-03 09:20:00,35.1,21.4,29.09,ENE,68,13.4,14.8,57,0.00,,---,0.00,VWS V14.01,2013-05-03 14:20:00,
2013-05-03 09:21:00,35.2,21.5,29.09,NE,45,14.1,15.2,57,0.00,,---,0.00,VWS V14.01,2013-05-03 14:21:00,
2013-05-03 09:25:00,35.2,21.5,29.09,NNE,22,7.8,14.1,57,0.00,,---,0.00,VWS V14.01,2013-05-03 14:25:00,
2013-05-03 09:26:00,35.4,21.7,29.09,NNE,22,12.3,13.6,57,0.00,,---,0.00,VWS V14.01,2013-05-03 14:26:00,
2013-05-03 09:30:00,35.2,21.5,29.09,NE,45,11.9,15.2,57,0.00,,---,0.00,VWS V14.01,2013-05-03 14:30:00,
2013-05-03 09:31:00,35.6,21.9,29.09,NE,45,13.2,19.0,57,0.00,,---,0.00,VWS V14.01,2013-05-03 14:31:00,
2013-05-03 09:35:00,35.6,21.9,29.09,NE,45,6.0,13.6,57,0.00,,---,0.00,VWS V14.01,2013-05-03 14:35:00,
2013-05-03 09:36:00,36.1,22.4,29.09,NNE,22,8.5,19.0,57,0.00,,---,0.00,VWS V14.01,2013-05-03 14:36:00,
2013-05-03 09:41:00,36.5,22.3,29.09,NE,45,8.7,11.4,56,0.00,,---,0.00,VWS V14.01,2013-05-03 14:41:00,
2013-05-03 09:45:00,36.3,22.1,29.09,NE,45,7.6,19.0,56,0.00,,---,0.00,VWS V14.01,2013-05-03 14:45:00,
2013-05-03 09:46:00,36.9,21.8,29.09,ENE,68,10.7,17.9,54,0.00,,---,0.00,VWS V14.01,2013-05-03 14:46:00,
2013-05-03 09:50:00,36.7,21.6,29.09,ENE,68,13.2,13.2,54,0.00,,---,0.00,VWS V14.01,2013-05-03 14:50:00,
2013-05-03 09:51:00,36.7,21.6,29.09,ENE,68,12.5,15.2,54,0.00,,---,0.00,VWS V14.01,2013-05-03 14:51:00,
2013-05-03 09:55:00,36.7,22.0,29.09,NE,45,15.2,17.9,55,0.00,,---,0.00,VWS V14.01,2013-05-03 14:55:00,
2013-05-03 09:56:00,37.4,22.3,29.09,NE,45,17.7,17.7,54,0.00,,---,0.00,VWS V14.01,2013-05-03 14:56:00,
2013-05-03 10:00:00,37.0,22.0,29.09,NE,45,8.1,15.2,54,0.00,,---,0.00,VWS V14.01,2013-05-03 15:00:00,
2013-05-03 10:01:00,37.6,22.0,29.09,NNE,22,3.1,8.5,53,0.00,,---,0.00,VWS V14.01,2013-05-03 15:01:00,
2013-05-03 10:05:00,37.4,21.9,29.09,NNE,22,8.5,17.7,53,0.00,,---,0.00,VWS V14.01,2013-05-03 15:05:00,
2013-05-03 10:06:00,37.8,21.7,29.09,NE,45,17.7,18.8,52,0.00,,---,0.00,VWS V14.01,2013-05-03 15:06:00,
2013-05-03 10:10:00,37.8,21.7,29.09,NNE,22,14.8,19.9,52,0.00,,---,0.00,VWS V14.01,2013-05-03 15:10:00,
2013-05-03 10:11:00,37.6,21.6,29.09,East,90,16.6,20.8,52,0.00,,---,0.00,VWS V14.01,2013-05-03 15:11:00,
2013-05-03 10:15:00,37.6,21.6,29.09,NE,45,19.5,19.5,52,0.00,,---,0.00,VWS V14.01,2013-05-03 15:15:00,
2013-05-03 10:16:00,37.9,21.9,29.09,NE,45,15.4,17.7,52,0.00,,---,0.00,VWS V14.01,2013-05-03 15:16:00,
2013-05-03 10:20:00,37.9,21.9,29.09,NE,45,15.4,20.8,52,0.00,,---,0.00,VWS V14.01,2013-05-03 15:20:00,
2013-05-03 10:21:00,38.5,22.4,29.09,NE,45,13.2,17.5,52,0.00,,---,0.00,VWS V14.01,2013-05-03 15:21:00,
2013-05-03 10:25:00,38.7,22.6,29.09,ENE,68,17.5,17.7,52,0.00,,---,0.00,VWS V14.01,2013-05-03 15:25:00,
2013-05-03 10:26:00,39.2,23.1,29.09,NNE,22,13.0,19.9,52,0.00,,---,0.00,VWS V14.01,2013-05-03 15:26:00,
2013-05-03 10:30:00,38.7,22.6,29.09,NE,45,17.0,17.5,52,0.00,,---,0.00,VWS V14.01,2013-05-03 15:30:00,
2013-05-03 10:31:00,39.9,23.3,29.09,NNE,22,9.0,14.5,51,0.00,,---,0.00,VWS V14.01,2013-05-03 15:31:00,
2013-05-03 10:35:00,39.6,22.5,29.09,NNE,22,10.5,19.9,50,0.00,,---,0.00,VWS V14.01,2013-05-03 15:35:00,
2013-05-03 10:36:00,40.8,23.6,29.09,NNE,22,8.7,12.3,50,0.00,,---,0.00,VWS V14.01,2013-05-03 15:36:00,
2013-05-03 10:40:00,40.5,23.3,29.09,NE,45,12.3,14.5,50,0.00,,---,0.00,VWS V14.01,2013-05-03 15:40:00,
2013-05-03 10:41:00,40.3,23.1,29.09,NNE,22,12.8,14.8,50,0.00,,---,0.00,VWS V14.01,2013-05-03 15:41:00,
2013-05-03 10:45:00,40.6,23.0,29.09,ENE,68,13.2,13.2,49,0.00,,---,0.00,VWS V14.01,2013-05-03 15:45:00,
2013-05-03 10:46:00,40.3,22.7,29.09,NE,45,5.6,12.8,49,0.00,,---,0.00,VWS V14.01,2013-05-03 15:46:00,
2013-05-03 10:50:00,40.3,23.1,29.09,NE,45,12.5,14.8,50,0.00,,---,0.00,VWS V14.01,2013-05-03 15:50:00,
2013-05-03 10:51:00,40.6,23.0,29.09,NNE,22,7.4,8.1,49,0.00,,---,0.00,VWS V14.01,2013-05-03 15:51:00,
2013-05-03 10:55:00,40.5,22.8,29.09,North,0,7.8,12.8,49,0.00,,---,0.00,VWS V14.01,2013-05-03 15:55:00,
2013-05-03 10:56:00,41.0,22.8,29.09,NE,45,10.7,12.5,48,0.00,,---,0.00,VWS V14.01,2013-05-03 15:56:00,
2013-05-03 11:00:00,40.8,23.1,29.09,ENE,68,6.0,10.5,49,0.00,,---,0.00,VWS V14.01,2013-05-03 16:00:00,
2013-05-03 11:01:00,41.2,23.0,29.09,NE,45,12.3,12.3,48,0.00,,---,0.00,VWS V14.01,2013-05-03 16:01:00,
2013-05-03 11:05:00,41.2,23.0,29.09,NNE,22,7.8,13.0,48,0.00,,---,0.00,VWS V14.01,2013-05-03 16:05:00,
2013-05-03 11:06:00,41.5,23.3,29.06,NE,45,12.3,12.3,48,0.00,,---,0.00,VWS V14.01,2013-05-03 16:06:00,
2013-05-03 11:10:00,41.4,23.2,29.06,NNE,22,11.4,13.4,48,0.00,,---,0.00,VWS V14.01,2013-05-03 16:10:00,
2013-05-03 11:11:00,41.9,23.7,29.06,NE,45,8.7,8.7,48,0.00,,---,0.00,VWS V14.01,2013-05-03 16:11:00,
2013-05-03 11:15:00,41.5,23.3,29.06,NNE,22,5.6,12.3,48,0.00,,---,0.00,VWS V14.01,2013-05-03 16:15:00,
2013-05-03 11:16:00,42.1,23.3,29.06,NNE,22,12.5,13.9,47,0.00,,---,0.00,VWS V14.01,2013-05-03 16:16:00,
2013-05-03 11:20:00,42.1,23.3,29.06,NE,45,10.5,12.3,47,0.00,,---,0.00,VWS V14.01,2013-05-03 16:20:00,
2013-05-03 11:21:00,41.5,23.3,29.03,NE,45,13.0,15.4,48,0.00,,---,0.00,VWS V14.01,2013-05-03 16:21:00,
2013-05-03 11:25:00,41.9,23.2,29.03,NE,45,8.5,13.9,47,0.00,,---,0.00,VWS V14.01,2013-05-03 16:25:00,
2013-05-03 11:26:00,41.7,23.0,29.03,NNE,22,8.5,14.8,47,0.00,,---,0.00,VWS V14.01,2013-05-03 16:26:00,
2013-05-03 11:30:00,41.5,23.3,29.03,NE,45,14.8,15.4,48,0.00,,---,0.00,VWS V14.01,2013-05-03 16:30:00,
2013-05-03 11:31:00,42.3,24.0,29.03,NE,45,12.3,14.8,48,0.00,,---,0.00,VWS V14.01,2013-05-03 16:31:00,
2013-05-03 11:36:00,41.9,23.2,29.03,NE,45,9.8,15.4,47,0.00,,---,0.00,VWS V14.01,2013-05-03 16:36:00,
2013-05-03 11:40:00,41.9,23.2,29.03,NE,45,15.2,17.0,47,0.00,,---,0.00,VWS V14.01,2013-05-03 16:40:00,
2013-05-03 11:41:00,42.1,22.8,29.03,ENE,68,12.3,16.3,46,0.00,,---,0.00,VWS V14.01,2013-05-03 16:41:00,
2013-05-03 11:45:00,42.3,23.5,29.03,NE,45,16.3,16.3,47,0.00,,---,0.00,VWS V14.01,2013-05-03 16:45:00,
2013-05-03 11:46:00,41.9,22.6,29.03,NE,45,13.0,17.7,46,0.00,,---,0.00,VWS V14.01,2013-05-03 16:46:00,
2013-05-03 11:50:00,41.9,22.6,29.03,NE,45,17.7,20.4,46,0.00,,---,0.00,VWS V14.01,2013-05-03 16:50:00,
2013-05-03 11:51:00,42.8,23.5,29.03,NNW,338,7.2,10.1,46,0.00,,---,0.00,VWS V14.01,2013-05-03 16:51:00,
2013-05-03 11:55:00,42.4,23.6,29.03,NNE,22,7.6,17.7,47,0.00,,---,0.00,VWS V14.01,2013-05-03 16:55:00,
2013-05-03 11:56:00,43.0,23.1,29.03,North,0,7.6,12.8,45,0.00,,---,0.00,VWS V14.01,2013-05-03 16:56:00,
2013-05-03 12:00:00,43.0,23.6,29.03,North,0,10.1,12.3,46,0.00,,---,0.00,VWS V14.01,2013-05-03 17:00:00,
2013-05-03 12:02:00,43.3,23.4,29.03,ENE,68,11.0,12.8,45,0.00,,---,0.00,VWS V14.01,2013-05-03 17:02:00,
2013-05-03 12:05:00,43.5,23.6,29.03,NNE,22,8.5,12.8,45,0.00,,---,0.00,VWS V14.01,2013-05-03 17:05:00,
2013-05-03 12:06:00,43.3,23.4,29.03,ENE,68,12.8,12.8,45,0.00,,---,0.00,VWS V14.01,2013-05-03 17:06:00,
2013-05-03 12:07:00,44.2,24.3,29.00,NE,45,12.8,12.8,45,0.00,,---,0.00,VWS V14.01,2013-05-03 17:07:00,
2013-05-03 12:10:00,43.3,23.4,29.00,NNE,22,6.5,12.8,45,0.00,,---,0.00,VWS V14.01,2013-05-03 17:10:00,
2013-05-03 12:12:00,44.2,23.7,29.00,North,0,8.5,11.0,44,0.00,,---,0.00,VWS V14.01,2013-05-03 17:12:00,
2013-05-03 12:15:00,44.1,23.6,29.00,ENE,68,5.4,14.8,44,0.00,,---,0.00,VWS V14.01,2013-05-03 17:15:00,
2013-05-03 12:17:00,44.4,23.9,29.00,NNE,22,7.2,11.2,44,0.00,,---,0.00,VWS V14.01,2013-05-03 17:17:00,
2013-05-03 12:20:00,44.4,23.9,29.00,NE,45,7.8,11.4,44,0.00,,---,0.00,VWS V14.01,2013-05-03 17:20:00,
2013-05-03 12:22:00,44.6,23.5,29.03,NNW,338,8.7,12.8,43,0.00,,---,0.00,VWS V14.01,2013-05-03 17:22:00,
2013-05-03 12:25:00,44.6,24.0,29.03,North,0,12.5,13.2,44,0.00,,---,0.00,VWS V14.01,2013-05-03 17:25:00,
2013-05-03 12:27:00,45.3,24.2,29.03,NNW,338,9.8,15.4,43,0.00,,---,0.00,VWS V14.01,2013-05-03 17:27:00,
2013-05-03 12:30:00,45.1,24.5,29.03,NE,45,8.5,12.8,44,0.00,,---,0.00,VWS V14.01,2013-05-03 17:30:00,
2013-05-03 12:32:00,45.9,24.6,29.03,NNE,22,9.2,12.1,43,0.00,,---,0.00,VWS V14.01,2013-05-03 17:32:00,
2013-05-03 12:35:00,45.5,24.3,29.03,North,0,8.5,15.4,43,0.00,,---,0.00,VWS V14.01,2013-05-03 17:35:00,
2013-05-03 12:37:00,46.9,25.6,29.00,NNE,22,8.1,10.5,43,0.00,,---,0.00,VWS V14.01,2013-05-03 17:37:00,
2013-05-03 12:40:00,46.6,25.3,29.00,NE,45,4.3,12.1,43,0.00,,---,0.00,VWS V14.01,2013-05-03 17:40:00,
2013-05-03 12:42:00,47.5,25.5,29.00,NE,45,5.6,8.1,42,0.00,,---,0.00,VWS V14.01,2013-05-03 17:42:00,
2013-05-03 12:45:00,47.3,25.4,29.00,North,0,8.1,12.3,42,0.00,,---,0.00,VWS V14.01,2013-05-03 17:45:00,
2013-05-03 12:47:00,47.5,25.0,29.00,NNE,22,5.8,15.7,41,0.00,,---,0.00,VWS V14.01,2013-05-03 17:47:00,
2013-05-03 12:50:00,47.5,25.5,29.00,NE,45,6.0,13.4,42,0.00,,---,0.00,VWS V14.01,2013-05-03 17:50:00,
2013-05-03 12:52:00,47.7,25.1,29.00,NNE,22,12.5,12.8,41,0.00,,---,0.00,VWS V14.01,2013-05-03 17:52:00,
2013-05-03 12:55:00,47.7,25.1,29.00,NNW,338,6.5,15.7,41,0.00,,---,0.00,VWS V14.01,2013-05-03 17:55:00,
2013-05-03 12:57:00,46.4,24.0,29.00,ENE,68,11.0,15.4,41,0.00,,---,0.00,VWS V14.01,2013-05-03 17:57:00,
2013-05-03 13:00:00,47.1,25.2,29.00,NNE,22,6.9,17.2,42,0.00,,---,0.00,VWS V14.01,2013-05-03 18:00:00,
2013-05-03 13:02:00,46.6,24.7,29.00,NNW,338,6.5,17.0,42,0.00,,---,0.00,VWS V14.01,2013-05-03 18:02:00,
2013-05-03 13:05:00,46.4,24.0,29.00,East,90,17.0,17.0,41,0.00,,---,0.00,VWS V14.01,2013-05-03 18:05:00,
2013-05-03 13:07:00,46.9,23.9,29.00,NE,45,7.4,17.0,40,0.00,,---,0.00,VWS V14.01,2013-05-03 18:07:00,
2013-05-03 13:10:00,47.1,24.6,29.00,NE,45,3.6,17.0,41,0.00,,---,0.00,VWS V14.01,2013-05-03 18:10:00,
2013-05-03 13:12:00,46.6,23.6,29.00,NE,45,12.8,19.2,40,0.00,,---,0.00,VWS V14.01,2013-05-03 18:12:00,
2013-05-03 13:15:00,46.9,24.5,29.00,ENE,68,10.3,17.0,41,0.00,,---,0.00,VWS V14.01,2013-05-03 18:15:00,
2013-05-03 13:17:00,46.0,23.1,29.00,NE,45,8.1,17.5,40,0.00,,---,0.00,VWS V14.01,2013-05-03 18:17:00,
2013-05-03 13:20:00,46.4,23.4,29.00,NNE,22,13.0,19.2,40,0.00,,---,0.00,VWS V14.01,2013-05-03 18:20:00,
2013-05-03 13:22:00,46.8,23.7,29.00,NNE,22,13.0,15.4,40,0.00,,---,0.00,VWS V14.01,2013-05-03 18:22:00,
2013-05-03 13:25:00,46.6,23.6,29.00,NNE,22,7.4,17.5,40,0.00,,---,0.00,VWS V14.01,2013-05-03 18:25:00,
2013-05-03 13:27:00,46.6,23.6,29.00,NNW,338,8.5,17.9,40,0.00,,---,0.00,VWS V14.01,2013-05-03 18:27:00,
2013-05-03 13:30:00,46.9,23.9,29.00,NE,45,15.4,15.4,40,0.00,,---,0.00,VWS V14.01,2013-05-03 18:30:00,
2013-05-03 13:32:00,46.9,23.3,29.00,NNE,22,12.5,12.8,39,0.00,,---,0.00,VWS V14.01,2013-05-03 18:32:00,
2013-05-03 13:35:00,46.9,23.9,29.00,NNE,22,5.4,17.9,40,0.00,,---,0.00,VWS V14.01,2013-05-03 18:35:00,
2013-05-03 13:37:00,46.9,23.9,29.00,NE,45,7.4,10.7,40,0.00,,---,0.00,VWS V14.01,2013-05-03 18:37:00,
2013-05-03 13:40:00,46.9,23.9,29.00,NNE,22,10.1,12.8,40,0.00,,---,0.00,VWS V14.01,2013-05-03 18:40:00,
2013-05-03 13:42:00,46.2,23.2,29.00,East,90,13.9,17.7,40,0.00,,---,0.00,VWS V14.01,2013-05-03 18:42:00,
2013-05-03 13:45:00,46.8,23.7,29.00,ENE,68,15.4,15.4,40,0.00,,---,0.00,VWS V14.01,2013-05-03 18:45:00,
2013-05-03 13:47:00,45.0,22.7,29.00,ENE,68,17.5,23.0,41,0.00,,---,0.00,VWS V14.01,2013-05-03 18:47:00,
2013-05-03 13:50:00,46.0,23.1,29.00,East,90,20.1,20.1,40,0.00,,---,0.00,VWS V14.01,2013-05-03 18:50:00,
2013-05-03 13:52:00,44.6,22.4,28.94,NE,45,18.6,19.9,41,0.00,,---,0.00,VWS V14.01,2013-05-03 18:52:00,
2013-05-03 13:55:00,44.6,22.4,28.94,ENE,68,19.9,23.0,41,0.00,,---,0.00,VWS V14.01,2013-05-03 18:55:00,
2013-05-03 13:57:00,45.0,22.1,28.94,NE,45,15.2,15.7,40,0.00,,---,0.00,VWS V14.01,2013-05-03 18:57:00,
2013-05-03 14:00:00,44.6,22.4,28.94,NE,45,13.0,19.9,41,0.00,,---,0.00,VWS V14.01,2013-05-03 19:00:00,
2013-05-03 14:02:00,45.3,22.4,28.94,NE,45,8.1,16.1,40,0.00,,---,0.00,VWS V14.01,2013-05-03 19:02:00,
2013-05-03 14:07:00,45.1,22.9,28.97,ENE,68,17.7,19.2,41,0.00,,---,0.00,VWS V14.01,2013-05-03 19:07:00,
2013-05-03 14:10:00,45.3,22.4,28.97,ENE,68,19.2,19.9,40,0.00,,---,0.00,VWS V14.01,2013-05-03 19:10:00,
2013-05-03 14:12:00,44.2,22.6,28.97,ENE,68,14.5,20.8,42,0.00,,---,0.00,VWS V14.01,2013-05-03 19:12:00,
2013-05-03 14:15:00,44.6,22.4,28.97,ENE,68,15.4,22.2,41,0.00,,---,0.00,VWS V14.01,2013-05-03 19:15:00,
2013-05-03 14:17:00,45.1,22.9,28.97,NE,45,5.8,15.4,41,0.00,,---,0.00,VWS V14.01,2013-05-03 19:17:00,
2013-05-03 14:20:00,44.6,22.4,28.97,NNE,22,15.4,20.8,41,0.00,,---,0.00,VWS V14.01,2013-05-03 19:20:00,
2013-05-03 14:22:00,45.1,22.9,28.97,ENE,68,12.3,17.7,41,0.00,,---,0.00,VWS V14.01,2013-05-03 19:22:00,
2013-05-03 14:25:00,45.1,22.3,28.97,NNW,338,8.7,15.4,40,0.00,,---,0.00,VWS V14.01,2013-05-03 19:25:00,
2013-05-03 14:27:00,44.8,22.5,28.97,NE,45,14.8,17.7,41,0.00,,---,0.00,VWS V14.01,2013-05-03 19:27:00,
2013-05-03 14:32:00,44.1,21.9,28.97,NE,45,14.5,15.2,41,0.00,,---,0.00,VWS V14.01,2013-05-03 19:32:00,
2013-05-03 14:35:00,44.1,22.5,28.97,NE,45,15.2,17.7,42,0.00,,---,0.00,VWS V14.01,2013-05-03 19:35:00,
2013-05-03 14:37:00,43.7,21.6,28.97,ENE,68,17.0,17.7,41,0.00,,---,0.00,VWS V14.01,2013-05-03 19:37:00,
2013-05-03 14:40:00,43.7,21.6,28.97,ENE,68,17.2,23.5,41,0.00,,---,0.00,VWS V14.01,2013-05-03 19:40:00,
2013-05-03 14:42:00,43.5,22.0,28.97,NE,45,13.2,15.2,42,0.00,,---,0.00,VWS V14.01,2013-05-03 19:42:00,
2013-05-03 14:45:00,43.7,21.6,28.97,East,90,13.2,21.9,41,0.00,,---,0.00,VWS V14.01,2013-05-03 19:45:00,
2013-05-03 14:47:00,43.5,22.0,28.97,ENE,68,13.0,17.7,42,0.00,,---,0.00,VWS V14.01,2013-05-03 19:47:00,
2013-05-03 14:50:00,43.5,22.0,28.97,NE,45,15.2,16.1,42,0.00,,---,0.00,VWS V14.01,2013-05-03 19:50:00,
2013-05-03 14:52:00,43.7,22.1,28.97,NE,45,12.3,15.7,42,0.00,,---,0.00,VWS V14.01,2013-05-03 19:52:00,
2013-05-03 14:55:00,43.3,21.8,28.97,ENE,68,15.7,17.7,42,0.00,,---,0.00,VWS V14.01,2013-05-03 19:55:00,
2013-05-03 14:57:00,44.2,22.0,28.97,NE,45,8.1,11.0,41,0.00,,---,0.00,VWS V14.01,2013-05-03 19:57:00,
2013-05-03 15:00:00,43.9,21.7,28.97,ENE,68,11.0,15.7,41,0.00,,---,0.00,VWS V14.01,2013-05-03 20:00:00,
2013-05-03 15:02:00,44.4,22.8,28.97,NE,45,10.5,16.8,42,0.00,,---,0.00,VWS V14.01,2013-05-03 20:02:00,
2013-05-03 15:05:00,44.6,22.4,28.97,ENE,68,12.5,14.8,41,0.00,,---,0.00,VWS V14.01,2013-05-03 20:05:00,
2013-05-03 15:07:00,44.6,22.9,28.94,ENE,68,11.2,11.2,42,0.00,,---,0.00,VWS V14.01,2013-05-03 20:07:00,
2013-05-03 15:10:00,44.2,22.6,28.94,ENE,68,10.5,16.8,42,0.00,,---,0.00,VWS V14.01,2013-05-03 20:10:00,
2013-05-03 15:12:00,44.4,22.8,28.94,NE,45,12.8,16.6,42,0.00,,---,0.00,VWS V14.01,2013-05-03 20:12:00,
2013-05-03 15:15:00,44.6,22.4,28.94,NE,45,16.6,16.6,41,0.00,,---,0.00,VWS V14.01,2013-05-03 20:15:00,
2013-05-03 15:17:00,44.6,22.4,28.94,NE,45,7.8,14.3,41,0.00,,---,0.00,VWS V14.01,2013-05-03 20:17:00,
2013-05-03 15:20:00,44.6,22.9,28.94,NE,45,13.2,16.6,42,0.00,,---,0.00,VWS V14.01,2013-05-03 20:20:00,
2013-05-03 15:22:00,44.8,22.5,28.94,NNE,22,7.6,12.1,41,0.00,,---,0.00,VWS V14.01,2013-05-03 20:22:00,
2013-05-03 15:25:00,44.8,22.5,28.94,North,0,5.6,14.3,41,0.00,,---,0.00,VWS V14.01,2013-05-03 20:25:00,
2013-05-03 15:27:00,44.6,22.4,28.94,NE,45,9.8,13.6,41,0.00,,---,0.00,VWS V14.01,2013-05-03 20:27:00,
2013-05-03 15:30:00,44.8,22.5,28.94,NNE,22,13.6,13.6,41,0.00,,---,0.00,VWS V14.01,2013-05-03 20:30:00,
2013-05-03 15:32:00,44.4,22.2,28.94,NNE,22,9.8,12.1,41,0.00,,---,0.00,VWS V14.01,2013-05-03 20:32:00,
2013-05-03 15:35:00,44.6,22.4,28.94,NNE,22,6.7,13.6,41,0.00,,---,0.00,VWS V14.01,2013-05-03 20:35:00,
2013-05-03 15:37:00,44.2,22.0,28.97,NNE,22,11.2,16.6,41,0.00,,---,0.00,VWS V14.01,2013-05-03 20:37:00,
2013-05-03 15:40:00,44.4,22.2,28.97,NE,45,12.1,12.1,41,0.00,,---,0.00,VWS V14.01,2013-05-03 20:40:00,
2013-05-03 15:42:00,44.2,22.6,28.97,NE,45,13.2,13.2,42,0.00,,---,0.00,VWS V14.01,2013-05-03 20:42:00,
2013-05-03 15:45:00,44.2,22.0,28.97,NE,45,12.1,16.6,41,0.00,,---,0.00,VWS V14.01,2013-05-03 20:45:00,
2013-05-03 15:47:00,44.2,22.6,28.97,NNE,22,7.8,12.8,42,0.00,,---,0.00,VWS V14.01,2013-05-03 20:47:00,
2013-05-03 15:50:00,44.2,22.6,28.97,NE,45,6.0,14.5,42,0.00,,---,0.00,VWS V14.01,2013-05-03 20:50:00,
2013-05-03 15:52:00,44.4,22.2,28.97,NE,45,7.6,12.8,41,0.00,,---,0.00,VWS V14.01,2013-05-03 20:52:00,
2013-05-03 15:57:00,44.4,22.8,28.97,NNE,22,13.0,13.0,42,0.00,,---,0.00,VWS V14.01,2013-05-03 20:57:00,
2013-05-03 16:00:00,44.2,22.6,28.97,NNE,22,10.3,12.8,42,0.00,,---,0.00,VWS V14.01,2013-05-03 21:00:00,
2013-05-03 16:02:00,44.4,22.8,28.97,East,90,11.0,12.5,42,0.00,,---,0.00,VWS V14.01,2013-05-03 21:02:00,
2013-05-03 16:05:00,44.4,22.8,28.97,North,0,9.8,13.4,42,0.00,,---,0.00,VWS V14.01,2013-05-03 21:05:00,
2013-05-03 16:07:00,44.1,23.0,28.97,NE,45,9.8,12.8,43,0.00,,---,0.00,VWS V14.01,2013-05-03 21:07:00,
2013-05-03 16:10:00,44.2,22.6,28.97,NE,45,5.8,12.5,42,0.00,,---,0.00,VWS V14.01,2013-05-03 21:10:00,
2013-05-03 16:12:00,44.2,22.6,28.97,NE,45,11.9,12.8,42,0.00,,---,0.00,VWS V14.01,2013-05-03 21:12:00,
2013-05-03 16:15:00,44.1,22.5,28.97,North,0,7.6,12.8,42,0.00,,---,0.00,VWS V14.01,2013-05-03 21:15:00,
2013-05-03 16:17:00,44.1,22.5,28.97,ENE,68,15.2,15.2,42,0.00,,---,0.00,VWS V14.01,2013-05-03 21:17:00,
2013-05-03 16:20:00,44.1,22.5,28.97,NE,45,11.0,13.9,42,0.00,,---,0.00,VWS V14.01,2013-05-03 21:20:00,
2013-05-03 16:22:00,44.1,22.5,28.97,NE,45,6.0,12.1,42,0.00,,---,0.00,VWS V14.01,2013-05-03 21:22:00,
2013-05-03 16:25:00,43.9,22.3,28.97,NE,45,10.5,15.2,42,0.00,,---,0.00,VWS V14.01,2013-05-03 21:25:00,
2013-05-03 16:27:00,44.2,22.6,28.97,NE,45,7.8,15.2,42,0.00,,---,0.00,VWS V14.01,2013-05-03 21:27:00,
2013-05-03 16:30:00,44.1,22.5,28.97,NNE,22,7.8,12.1,42,0.00,,---,0.00,VWS V14.01,2013-05-03 21:30:00,
2013-05-03 16:32:00,44.1,22.5,28.97,ENE,68,13.4,15.2,42,0.00,,---,0.00,VWS V14.01,2013-05-03 21:32:00,
2013-05-03 16:35:00,44.1,22.5,28.97,NNE,22,12.5,15.2,42,0.00,,---,0.00,VWS V14.01,2013-05-03 21:35:00,
2013-05-03 16:37:00,43.3,22.4,28.97,NE,45,10.5,15.4,43,0.00,,---,0.00,VWS V14.01,2013-05-03 21:37:00,
2013-05-03 16:42:00,43.7,22.1,28.97,NNW,338,8.1,14.5,42,0.00,,---,0.00,VWS V14.01,2013-05-03 21:42:00,
2013-05-03 16:45:00,43.5,22.0,28.97,NE,45,14.5,15.4,42,0.00,,---,0.00,VWS V14.01,2013-05-03 21:45:00,
2013-05-03 16:47:00,43.9,22.3,28.97,NE,45,12.8,13.0,42,0.00,,---,0.00,VWS V14.01,2013-05-03 21:47:00,
2013-05-03 16:50:00,43.7,22.1,28.97,ENE,68,7.8,14.5,42,0.00,,---,0.00,VWS V14.01,2013-05-03 21:50:00,
2013-05-03 16:52:00,43.5,22.0,28.94,NE,45,13.2,15.2,42,0.00,,---,0.00,VWS V14.01,2013-05-03 21:52:00,
2013-05-03 16:57:00,43.5,22.0,28.94,NE,45,12.3,13.2,42,0.00,,---,0.00,VWS V14.01,2013-05-03 21:57:00,
2013-05-03 17:00:00,43.3,22.4,28.94,NE,45,13.2,15.7,43,0.00,,---,0.00,VWS V14.01,2013-05-03 22:00:00,
2013-05-03 17:02:00,43.7,22.1,28.94,ENE,68,10.3,10.3,42,0.00,,---,0.00,VWS V14.01,2013-05-03 22:02:00,
2013-05-03 17:05:00,43.7,22.1,28.94,NE,45,7.8,13.2,42,0.00,,---,0.00,VWS V14.01,2013-05-03 22:05:00,
2013-05-03 17:07:00,43.5,22.0,28.94,ENE,68,14.1,15.4,42,0.00,,---,0.00,VWS V14.01,2013-05-03 22:07:00,
2013-05-03 17:10:00,43.7,21.6,28.94,NE,45,8.1,13.0,41,0.00,,---,0.00,VWS V14.01,2013-05-03 22:10:00,
2013-05-03 17:12:00,43.5,22.0,28.94,ENE,68,13.2,13.2,42,0.00,,---,0.00,VWS V14.01,2013-05-03 22:12:00,
2013-05-03 17:15:00,43.5,22.0,28.94,ENE,68,12.8,15.4,42,0.00,,---,0.00,VWS V14.01,2013-05-03 22:15:00,
2013-05-03 17:17:00,43.7,22.1,28.94,NE,45,12.1,13.2,42,0.00,,---,0.00,VWS V14.01,2013-05-03 22:17:00,
2013-05-03 17:20:00,43.7,22.1,28.94,NE,45,13.2,13.2,42,0.00,,---,0.00,VWS V14.01,2013-05-03 22:20:00,
2013-05-03 17:22:00,43.5,22.0,28.94,NE,45,10.1,16.1,42,0.00,,---,0.00,VWS V14.01,2013-05-03 22:22:00,
2013-05-03 17:25:00,43.7,22.1,28.94,NE,45,9.8,14.8,42,0.00,,---,0.00,VWS V14.01,2013-05-03 22:25:00,
2013-05-03 17:27:00,43.5,22.0,28.94,NE,45,7.2,12.3,42,0.00,,---,0.00,VWS V14.01,2013-05-03 22:27:00,
2013-05-03 17:30:00,43.5,22.0,28.94,North,0,10.3,16.1,42,0.00,,---,0.00,VWS V14.01,2013-05-03 22:30:00,
2013-05-03 17:32:00,43.9,22.3,28.94,North,0,10.7,11.9,42,0.00,,---,0.00,VWS V14.01,2013-05-03 22:32:00,
2013-05-03 17:35:00,43.7,22.1,28.94,NE,45,4.7,12.3,42,0.00,,---,0.00,VWS V14.01,2013-05-03 22:35:00,
2013-05-03 17:37:00,43.9,21.7,28.91,NE,45,5.6,12.8,41,0.00,,---,0.00,VWS V14.01,2013-05-03 22:37:00,
2013-05-03 17:40:00,43.9,22.3,28.91,NE,45,8.1,11.9,42,0.00,,---,0.00,VWS V14.01,2013-05-03 22:40:00,
2013-05-03 17:42:00,43.9,22.3,28.91,ENE,68,6.5,12.3,42,0.00,,---,0.00,VWS V14.01,2013-05-03 22:42:00,
2013-05-03 17:45:00,43.9,22.3,28.91,NE,45,10.1,12.8,42,0.00,,---,0.00,VWS V14.01,2013-05-03 22:45:00,
2013-05-03 17:47:00,43.7,22.1,28.91,North,0,5.8,8.1,42,0.00,,---,0.00,VWS V14.01,2013-05-03 22:47:00,
2013-05-03 17:50:00,43.9,22.3,28.91,NNE,22,7.6,12.3,42,0.00,,---,0.00,VWS V14.01,2013-05-03 22:50:00,
2013-05-03 17:52:00,43.7,21.6,28.94,NNE,22,7.4,11.9,41,0.00,,---,0.00,VWS V14.01,2013-05-03 22:52:00,
2013-05-03 17:57:00,43.7,22.1,28.94,North,0,5.8,9.8,42,0.00,,---,0.00,VWS V14.01,2013-05-03 22:57:00,
2013-05-03 18:00:00,43.5,22.0,28.94,NE,45,5.6,11.9,42,0.00,,---,0.00,VWS V14.01,2013-05-03 23:00:00,
2013-05-03 18:02:00,43.5,22.0,28.94,NE,45,10.7,12.3,42,0.00,,---,0.00,VWS V14.01,2013-05-03 23:02:00,
2013-05-03 18:05:00,43.5,22.0,28.94,NNE,22,7.6,10.1,42,0.00,,---,0.00,VWS V14.01,2013-05-03 23:05:00,
2013-05-03 18:07:00,43.7,22.1,28.91,NNE,22,4.0,10.1,42,0.00,,---,0.00,VWS V14.01,2013-05-03 23:07:00,
2013-05-03 18:10:00,43.5,22.0,28.91,NNE,22,7.8,12.3,42,0.00,,---,0.00,VWS V14.01,2013-05-03 23:10:00,
2013-05-03 18:12:00,43.7,22.1,28.91,NNW,338,7.8,8.7,42,0.00,,---,0.00,VWS V14.01,2013-05-03 23:12:00,
2013-05-03 18:15:00,43.7,22.1,28.91,NNE,22,7.2,10.5,42,0.00,,---,0.00,VWS V14.01,2013-05-03 23:15:00,
2013-05-03 18:17:00,43.7,22.1,28.91,NE,45,6.5,11.2,42,0.00,,---,0.00,VWS V14.01,2013-05-03 23:17:00,
2013-05-03 18:20:00,43.7,22.1,28.91,NE,45,7.4,8.7,42,0.00,,---,0.00,VWS V14.01,2013-05-03 23:20:00,
2013-05-03 18:22:00,43.7,22.1,28.91,NNE,22,6.5,14.8,42,0.00,,---,0.00,VWS V14.01,2013-05-03 23:22:00,
2013-05-03 18:25:00,43.7,22.1,28.91,NE,45,12.8,12.8,42,0.00,,---,0.00,VWS V14.01,2013-05-03 23:25:00,
2013-05-03 18:27:00,43.7,22.1,28.91,ENE,68,12.3,12.3,42,0.00,,---,0.00,VWS V14.01,2013-05-03 23:27:00,
2013-05-03 18:30:00,43.7,22.1,28.91,NNE,22,8.5,14.8,42,0.00,,---,0.00,VWS V14.01,2013-05-03 23:30:00,
2013-05-03 18:32:00,43.5,22.0,28.91,NE,45,6.0,10.3,42,0.00,,---,0.00,VWS V14.01,2013-05-03 23:32:00,
2013-05-03 18:35:00,43.5,22.0,28.91,North,0,7.4,12.3,42,0.00,,---,0.00,VWS V14.01,2013-05-03 23:35:00,
2013-05-03 18:37:00,43.5,22.0,28.94,NE,45,6.0,10.5,42,0.00,,---,0.00,VWS V14.01,2013-05-03 23:37:00,
2013-05-03 18:40:00,43.5,22.0,28.94,NE,45,6.5,10.3,42,0.00,,---,0.00,VWS V14.01,2013-05-03 23:40:00,
2013-05-03 18:42:00,43.5,22.0,28.94,NNE,22,9.6,10.7,42,0.00,,---,0.00,VWS V14.01,2013-05-03 23:42:00,
2013-05-03 18:45:00,43.5,22.0,28.94,NE,45,7.8,10.5,42,0.00,,---,0.00,VWS V14.01,2013-05-03 23:45:00,
2013-05-03 18:47:00,43.5,22.0,28.94,NNE,22,11.2,11.2,42,0.00,,---,0.00,VWS V14.01,2013-05-03 23:47:00,
2013-05-03 18:50:00,43.5,22.0,28.94,NNE,22,7.6,12.1,42,0.00,,---,0.00,VWS V14.01,2013-05-03 23:50:00,
2013-05-03 18:52:00,43.3,21.8,28.94,NE,45,10.1,12.1,42,0.00,,---,0.00,VWS V14.01,2013-05-03 23:52:00,
2013-05-03 18:55:00,43.3,21.8,28.94,NNE,22,8.7,12.5,42,0.00,,---,0.00,VWS V14.01,2013-05-03 23:55:00,
2013-05-03 18:57:00,43.3,21.8,28.94,ENE,68,11.9,16.1,42,0.00,,---,0.00,VWS V14.01,2013-05-03 23:57:00,
2013-05-03 19:00:00,43.3,21.8,28.94,NE,45,10.3,12.5,42,0.00,,---,0.00,VWS V14.01,2013-05-04 00:00:00,
2013-05-03 19:02:00,43.3,21.8,28.94,NNE,22,13.0,16.3,42,0.00,,---,0.00,VWS V14.01,2013-05-04 00:02:00,
2013-05-03 19:05:00,43.3,21.8,28.94,ENE,68,13.0,16.1,42,0.00,,---,0.00,VWS V14.01,2013-05-04 00:05:00,
2013-05-03 19:07:00,43.0,22.0,28.94,ENE,68,12.5,19.7,43,0.00,,---,0.00,VWS V14.01,2013-05-04 00:07:00,
2013-05-03 19:10:00,43.3,21.8,28.94,NNE,22,14.8,16.3,42,0.00,,---,0.00,VWS V14.01,2013-05-04 00:10:00,
2013-05-03 19:12:00,42.4,23.1,28.94,ENE,68,18.8,22.8,46,0.00,,---,0.00,VWS V14.01,2013-05-04 00:12:00,
2013-05-03 19:15:00,42.8,22.4,28.94,ENE,68,20.6,22.2,44,0.00,,---,0.00,VWS V14.01,2013-05-04 00:15:00,
2013-05-03 19:17:00,42.1,22.8,28.94,ENE,68,10.3,17.7,46,0.00,,---,0.00,VWS V14.01,2013-05-04 00:17:00,
2013-05-03 19:20:00,42.1,22.8,28.94,NE,45,16.1,23.9,46,0.00,,---,0.00,VWS V14.01,2013-05-04 00:20:00,
2013-05-03 19:22:00,42.3,22.5,28.94,NE,45,12.8,14.8,45,0.00,,---,0.00,VWS V14.01,2013-05-04 00:22:00,
2013-05-03 19:25:00,42.1,22.8,28.94,NE,45,10.5,17.7,46,0.00,,---,0.00,VWS V14.01,2013-05-04 00:25:00,
2013-05-03 19:27:00,42.3,22.5,28.94,ENE,68,15.2,17.9,45,0.00,,---,0.00,VWS V14.01,2013-05-04 00:27:00,
2013-05-03 19:30:00,42.3,22.5,28.94,NNE,22,8.1,14.8,45,0.00,,---,0.00,VWS V14.01,2013-05-04 00:30:00,
2013-05-03 19:32:00,41.5,23.3,28.94,ENE,68,25.7,25.7,48,0.00,,---,0.00,VWS V14.01,2013-05-04 00:32:00,
2013-05-03 19:35:00,41.9,23.2,28.94,ENE,68,17.0,17.9,47,0.00,,---,0.00,VWS V14.01,2013-05-04 00:35:00,
2013-05-03 19:37:00,41.2,24.0,28.94,ENE,68,17.7,23.5,50,0.00,,---,0.00,VWS V14.01,2013-05-04 00:37:00,
2013-05-03 19:40:00,41.4,23.6,28.94,NE,45,17.9,25.7,49,0.00,,---,0.00,VWS V14.01,2013-05-04 00:40:00,
2013-05-03 19:42:00,40.6,24.4,28.94,ENE,68,13.0,17.2,52,0.00,,---,0.00,VWS V14.01,2013-05-04 00:42:00,
2013-05-03 19:45:00,41.0,23.8,28.94,ENE,68,15.2,23.5,50,0.00,,---,0.00,VWS V14.01,2013-05-04 00:45:00,
2013-05-03 19:47:00,40.3,25.4,28.94,ENE,68,20.8,23.9,55,0.00,,---,0.00,VWS V14.01,2013-05-04 00:47:00,
2013-05-03 19:50:00,40.6,24.9,28.94,ENE,68,14.8,17.2,53,0.00,,---,0.00,VWS V14.01,2013-05-04 00:50:00,
2013-05-03 19:52:00,40.1,26.1,28.94,ENE,68,17.9,19.7,57,0.00,,---,0.00,VWS V14.01,2013-05-04 00:52:00,
2013-05-03 19:55:00,40.3,25.4,28.94,ENE,68,17.5,23.9,55,0.00,,---,0.00,VWS V14.01,2013-05-04 00:55:00,
2013-05-03 19:57:00,40.1,26.1,28.94,ENE,68,12.3,15.2,57,0.00,,---,0.00,VWS V14.01,2013-05-04 00:57:00,
2013-05-03 20:00:00,40.1,26.1,28.94,NE,45,12.8,19.7,57,0.00,,---,0.00,VWS V14.01,2013-05-04 01:00:00,
2013-05-03 20:02:00,40.3,25.9,28.94,NE,45,11.0,12.8,56,0.00,,---,0.00,VWS V14.01,2013-05-04 01:02:00,
2013-05-03 20:05:00,40.1,26.1,28.94,NNE,22,9.6,15.4,57,0.00,,---,0.00,VWS V14.01,2013-05-04 01:05:00,
2013-05-03 20:07:00,40.5,25.6,28.97,ENE,68,7.8,10.1,55,0.00,,---,0.00,VWS V14.01,2013-05-04 01:07:00,
2013-05-03 20:10:00,40.3,25.9,28.97,NNE,22,9.8,12.8,56,0.00,,---,0.00,VWS V14.01,2013-05-04 01:10:00,
2013-05-03 20:12:00,40.5,26.0,28.97,NE,45,8.1,13.0,56,0.00,,---,0.00,VWS V14.01,2013-05-04 01:12:00,
2013-05-03 20:15:00,40.5,25.6,28.97,NE,45,8.5,12.5,55,0.00,,---,0.00,VWS V14.01,2013-05-04 01:15:00,
2013-05-03 20:17:00,40.3,25.9,28.97,ENE,68,12.8,13.0,56,0.00,,---,0.00,VWS V14.01,2013-05-04 01:17:00,
2013-05-03 20:20:00,40.5,26.0,28.97,ENE,68,10.1,14.3,56,0.00,,---,0.00,VWS V14.01,2013-05-04 01:20:00,
2013-05-03 20:22:00,40.3,25.4,28.94,NE,45,11.9,14.5,55,0.00,,---,0.00,VWS V14.01,2013-05-04 01:22:00,
2013-05-03 20:25:00,40.3,25.9,28.94,NNE,22,9.2,13.0,56,0.00,,---,0.00,VWS V14.01,2013-05-04 01:25:00,
2013-05-03 20:27:00,40.3,25.9,28.94,NNE,22,12.5,15.4,56,0.00,,---,0.00,VWS V14.01,2013-05-04 01:27:00,
2013-05-03 20:30:00,40.3,25.9,28.94,NE,45,15.4,15.4,56,0.00,,---,0.00,VWS V14.01,2013-05-04 01:30:00,
2013-05-03 20:32:00,40.3,25.9,28.94,NE,45,10.7,13.0,56,0.00,,---,0.00,VWS V14.01,2013-05-04 01:32:00,
2013-05-03 20:35:00,40.3,25.9,28.94,NE,45,8.1,15.4,56,0.00,,---,0.00,VWS V14.01,2013-05-04 01:35:00,
2013-05-03 20:37:00,40.3,25.9,28.91,NNE,22,7.4,10.1,56,0.00,,---,0.00,VWS V14.01,2013-05-04 01:37:00,
2013-05-03 20:40:00,40.3,25.9,28.91,WNW,292,8.5,13.0,56,0.00,,---,0.00,VWS V14.01,2013-05-04 01:40:00,
2013-05-03 20:42:00,40.3,25.9,28.91,NE,45,4.9,12.5,56,0.00,,---,0.00,VWS V14.01,2013-05-04 01:42:00,
2013-05-03 20:45:00,40.3,25.9,28.91,NE,45,8.7,12.1,56,0.00,,---,0.00,VWS V14.01,2013-05-04 01:45:00,
2013-05-03 20:47:00,40.3,25.9,28.91,NE,45,10.1,10.1,56,0.00,,---,0.00,VWS V14.01,2013-05-04 01:47:00,
2013-05-03 20:50:00,40.3,25.9,28.91,NE,45,7.8,12.5,56,0.00,,---,0.00,VWS V14.01,2013-05-04 01:50:00,
2013-05-03 20:52:00,40.3,25.9,28.94,NE,45,4.5,10.7,56,0.00,,---,0.00,VWS V14.01,2013-05-04 01:52:00,
2013-05-03 20:55:00,40.3,25.9,28.94,NE,45,7.4,12.3,56,0.00,,---,0.00,VWS V14.01,2013-05-04 01:55:00,
2013-05-03 20:57:00,40.3,25.9,28.94,NNE,22,8.1,9.6,56,0.00,,---,0.00,VWS V14.01,2013-05-04 01:57:00,
2013-05-03 21:00:00,40.3,25.9,28.94,NE,45,8.7,10.7,56,0.00,,---,0.00,VWS V14.01,2013-05-04 02:00:00,
2013-05-03 21:02:00,40.3,25.9,28.94,NE,45,8.1,12.5,56,0.00,,---,0.00,VWS V14.01,2013-05-04 02:02:00,
2013-05-03 21:05:00,40.3,25.4,28.94,NNE,22,4.3,10.1,55,0.00,,---,0.00,VWS V14.01,2013-05-04 02:05:00,
2013-05-03 21:07:00,40.3,25.9,28.94,North,0,8.7,14.1,56,0.00,,---,0.00,VWS V14.01,2013-05-04 02:07:00,
2013-05-03 21:10:00,40.3,25.9,28.94,NNE,22,6.5,12.5,56,0.00,,---,0.00,VWS V14.01,2013-05-04 02:10:00,
2013-05-03 21:12:00,40.3,25.4,28.94,NE,45,5.8,14.1,55,0.00,,---,0.00,VWS V14.01,2013-05-04 02:12:00,
2013-05-03 21:15:00,40.3,25.4,28.94,NNE,22,8.7,14.1,55,0.00,,---,0.00,VWS V14.01,2013-05-04 02:15:00,
2013-05-03 21:17:00,40.3,25.4,28.94,NE,45,9.6,10.3,55,0.00,,---,0.00,VWS V14.01,2013-05-04 02:17:00,
2013-05-03 21:20:00,40.3,25.4,28.94,North,0,10.3,14.1,55,0.00,,---,0.00,VWS V14.01,2013-05-04 02:20:00,
2013-05-03 21:22:00,40.3,25.4,28.94,NNE,22,8.5,8.5,55,0.00,,---,0.00,VWS V14.01,2013-05-04 02:22:00,
2013-05-03 21:25:00,40.3,25.4,28.94,NE,45,5.4,10.5,55,0.00,,---,0.00,VWS V14.01,2013-05-04 02:25:00,
2013-05-03 21:27:00,40.3,25.4,28.94,NE,45,8.1,12.5,55,0.00,,---,0.00,VWS V14.01,2013-05-04 02:27:00,
2013-05-03 21:30:00,40.3,25.4,28.94,NNE,22,6.7,13.9,55,0.00,,---,0.00,VWS V14.01,2013-05-04 02:30:00,
2013-05-03 21:32:00,40.5,25.6,28.94,NE,45,10.3,13.2,55,0.00,,---,0.00,VWS V14.01,2013-05-04 02:32:00,
2013-05-03 21:35:00,40.3,25.4,28.94,NE,45,9.8,12.5,55,0.00,,---,0.00,VWS V14.01,2013-05-04 02:35:00,
2013-05-03 21:37:00,40.5,25.6,28.94,NNE,22,10.7,15.2,55,0.00,,---,0.00,VWS V14.01,2013-05-04 02:37:00,
2013-05-03 21:40:00,40.5,25.6,28.94,NE,45,15.2,15.4,55,0.00,,---,0.00,VWS V14.01,2013-05-04 02:40:00,
2013-05-03 21:42:00,40.5,26.0,28.94,NE,45,13.0,14.1,56,0.00,,---,0.00,VWS V14.01,2013-05-04 02:42:00,
2013-05-03 21:45:00,40.5,25.6,28.94,NE,45,12.5,15.2,55,0.00,,---,0.00,VWS V14.01,2013-05-04 02:45:00,
2013-05-03 21:47:00,40.3,25.4,28.94,NE,45,10.1,15.2,55,0.00,,---,0.00,VWS V14.01,2013-05-04 02:47:00,
2013-05-03 21:50:00,40.3,25.4,28.94,NE,45,9.6,14.1,55,0.00,,---,0.00,VWS V14.01,2013-05-04 02:50:00,
2013-05-03 21:52:00,40.3,25.9,28.94,NE,45,10.7,12.3,56,0.00,,---,0.00,VWS V14.01,2013-05-04 02:52:00,
2013-05-03 21:55:00,40.3,25.4,28.94,NE,45,9.8,15.2,55,0.00,,---,0.00,VWS V14.01,2013-05-04 02:55:00,
2013-05-03 21:57:00,40.3,25.9,28.94,NE,45,13.2,14.5,56,0.00,,---,0.00,VWS V14.01,2013-05-04 02:57:00,
2013-05-03 22:00:00,40.3,25.9,28.94,NE,45,10.3,12.5,56,0.00,,---,0.00,VWS V14.01,2013-05-04 03:00:00,
2013-05-03 22:02:00,40.3,25.9,28.94,ENE,68,17.5,18.8,56,0.00,,---,0.00,VWS V14.01,2013-05-04 03:02:00,
2013-05-03 22:05:00,40.3,25.9,28.94,ENE,68,11.4,14.5,56,0.00,,---,0.00,VWS V14.01,2013-05-04 03:05:00,
2013-05-03 22:07:00,40.1,25.7,28.94,ENE,68,13.0,15.4,56,0.00,,---,0.00,VWS V14.01,2013-05-04 03:07:00,
2013-05-03 22:10:00,40.1,25.7,28.94,NE,45,13.4,18.8,56,0.00,,---,0.00,VWS V14.01,2013-05-04 03:10:00,
2013-05-03 22:12:00,39.9,25.9,28.94,NE,45,14.8,16.3,57,0.00,,---,0.00,VWS V14.01,2013-05-04 03:12:00,
2013-05-03 22:15:00,40.1,26.1,28.94,ENE,68,16.3,16.3,57,0.00,,---,0.00,VWS V14.01,2013-05-04 03:15:00,
2013-05-03 22:17:00,39.7,26.2,28.94,ENE,68,10.1,13.6,58,0.00,,---,0.00,VWS V14.01,2013-05-04 03:17:00,
2013-05-03 22:20:00,39.9,25.9,28.94,ENE,68,12.5,16.3,57,0.00,,---,0.00,VWS V14.01,2013-05-04 03:20:00,
2013-05-03 22:22:00,39.7,26.2,28.94,ENE,68,10.7,15.2,58,0.00,,---,0.00,VWS V14.01,2013-05-04 03:22:00,
2013-05-03 22:25:00,39.7,26.2,28.94,ENE,68,12.3,13.6,58,0.00,,---,0.00,VWS V14.01,2013-05-04 03:25:00,
2013-05-03 22:27:00,39.7,26.6,28.94,ENE,68,11.9,13.0,59,0.00,,---,0.00,VWS V14.01,2013-05-04 03:27:00,
2013-05-03 22:30:00,39.7,26.2,28.94,ENE,68,13.0,15.2,58,0.00,,---,0.00,VWS V14.01,2013-05-04 03:30:00,
2013-05-03 22:32:00,39.6,26.4,28.94,ENE,68,10.7,14.1,59,0.00,,---,0.00,VWS V14.01,2013-05-04 03:32:00,
2013-05-03 22:35:00,39.7,26.6,28.94,East,90,12.8,15.2,59,0.00,,---,0.00,VWS V14.01,2013-05-04 03:35:00,
2013-05-03 22:37:00,39.4,27.1,28.94,ENE,68,15.4,15.4,61,0.00,,---,0.00,VWS V14.01,2013-05-04 03:37:00,
2013-05-03 22:40:00,39.4,26.7,28.94,ENE,68,12.8,14.1,60,0.00,,---,0.00,VWS V14.01,2013-05-04 03:40:00,
2013-05-03 22:42:00,39.0,27.1,28.94,ENE,68,13.2,15.2,62,0.00,,---,0.00,VWS V14.01,2013-05-04 03:42:00,
2013-05-03 22:45:00,39.2,26.9,28.94,ENE,68,12.5,15.4,61,0.00,,---,0.00,VWS V14.01,2013-05-04 03:45:00,
2013-05-03 22:47:00,38.8,27.7,28.94,East,90,8.7,12.8,64,0.00,,---,0.00,VWS V14.01,2013-05-04 03:47:00,
2013-05-03 22:50:00,39.0,27.1,28.94,ENE,68,12.8,15.2,62,0.00,,---,0.00,VWS V14.01,2013-05-04 03:50:00,
2013-05-03 22:52:00,38.5,28.1,28.94,ENE,68,10.3,10.7,66,0.00,,---,0.00,VWS V14.01,2013-05-04 03:52:00,
2013-05-03 22:55:00,38.7,27.5,28.94,East,90,7.8,12.8,64,0.00,,---,0.00,VWS V14.01,2013-05-04 03:55:00,
2013-05-03 22:57:00,38.5,29.2,28.94,East,90,13.0,18.8,69,0.00,,---,0.00,VWS V14.01,2013-05-04 03:57:00,
2013-05-03 23:00:00,38.3,28.0,28.94,ENE,68,15.2,15.2,66,0.00,,---,0.00,VWS V14.01,2013-05-04 04:00:00,
2013-05-03 23:01:00,38.5,29.9,28.94,ENE,68,14.8,17.0,71,0.00,,---,0.00,VWS V14.01,2013-05-04 04:01:00,
2013-05-03 23:02:00,38.3,29.7,28.94,ENE,68,13.9,17.0,71,0.00,,---,0.00,VWS V14.01,2013-05-04 04:02:00,
2013-05-03 23:05:00,38.5,29.6,28.94,ENE,68,16.3,18.8,70,0.00,,---,0.00,VWS V14.01,2013-05-04 04:05:00,
2013-05-03 23:07:00,38.1,29.6,28.94,East,90,10.3,12.5,71,0.00,,---,0.00,VWS V14.01,2013-05-04 04:07:00,
2013-05-03 23:10:00,38.3,29.7,28.94,East,90,10.5,17.0,71,0.00,,---,0.00,VWS V14.01,2013-05-04 04:10:00,
2013-05-03 23:13:00,38.1,30.2,28.94,ENE,68,13.0,18.6,73,0.00,,---,0.00,VWS V14.01,2013-05-04 04:13:00,
2013-05-03 23:15:00,38.1,29.6,28.94,East,90,18.6,21.9,71,0.00,,---,0.00,VWS V14.01,2013-05-04 04:15:00,
2013-05-03 23:17:00,38.3,30.4,28.94,ENE,68,12.5,17.5,73,0.00,,---,0.00,VWS V14.01,2013-05-04 04:17:00,
2013-05-03 23:20:00,38.3,30.4,28.94,ESE,112,11.0,18.6,73,0.00,,---,0.00,VWS V14.01,2013-05-04 04:20:00,
2013-05-03 23:22:00,38.1,30.2,28.94,ENE,68,9.8,14.5,73,0.00,,---,0.00,VWS V14.01,2013-05-04 04:22:00,
2013-05-03 23:25:00,38.1,30.2,28.94,ENE,68,10.7,17.5,73,0.00,,---,0.00,VWS V14.01,2013-05-04 04:25:00,
2013-05-03 23:27:00,38.1,30.2,28.94,East,90,15.2,17.7,73,0.00,,---,0.00,VWS V14.01,2013-05-04 04:27:00,
2013-05-03 23:30:00,38.1,30.2,28.94,ENE,68,10.5,14.5,73,0.00,,---,0.00,VWS V14.01,2013-05-04 04:30:00,
2013-05-03 23:32:00,37.9,30.4,28.94,ENE,68,12.3,19.9,74,0.00,,---,0.00,VWS V14.01,2013-05-04 04:32:00,
2013-05-03 23:35:00,37.9,30.4,28.94,East,90,13.4,17.7,74,0.00,,---,0.00,VWS V14.01,2013-05-04 04:35:00,
2013-05-03 23:37:00,37.8,30.6,28.94,ENE,68,12.5,18.8,75,0.00,,---,0.00,VWS V14.01,2013-05-04 04:37:00,
2013-05-03 23:40:00,37.9,30.4,28.94,ENE,68,13.0,19.9,74,0.00,,---,0.00,VWS V14.01,2013-05-04 04:40:00,
2013-05-03 23:42:00,37.6,30.4,28.94,ENE,68,21.0,21.0,75,0.00,,---,0.00,VWS V14.01,2013-05-04 04:42:00,
2013-05-03 23:45:00,37.8,30.6,28.94,ENE,68,14.8,18.8,75,0.00,,---,0.00,VWS V14.01,2013-05-04 04:45:00,
2013-05-03 23:47:00,37.4,31.2,28.94,ENE,68,13.6,18.8,78,0.00,,---,0.00,VWS V14.01,2013-05-04 04:47:00,
2013-05-03 23:50:00,37.6,30.7,28.94,ENE,68,15.2,22.6,76,0.00,,---,0.00,VWS V14.01,2013-05-04 04:50:00,
2013-05-03 23:53:00,37.2,31.9,28.94,ENE,68,16.1,16.1,81,0.00,,---,0.00,VWS V14.01,2013-05-04 04:53:00,
2013-05-03 23:55:00,37.4,31.2,28.94,East,90,15.9,18.8,78,0.00,,---,0.00,VWS V14.01,2013-05-04 04:55:00,
2013-05-03 23:58:00,36.9,32.2,28.94,ENE,68,14.1,16.1,83,0.00,,---,0.00,VWS V14.01,2013-05-04 04:58:00,